Weather History for Presque Isle, ME

Change the Weather History Date:

Saturday, February 2, 2013

  Actual Average Record
Temperature  
Mean Temperature 4 °F -  
Max Temperature 10 °F 24 °F 49 °F (1976)
Min Temperature -2 °F 2 °F -32 °F (1962)
Degree Days  
Heating Degree Days 61    
Moisture  
Dew Point -6 °F    
Average Humidity 66    
Maximum Humidity 92    
Minimum Humidity 41    
Precipitation  
Precipitation 0.00 in - - ()
Sea Level Pressure  
Sea Level Pressure 29.97 in    
Wind  
Wind Speed 7 mph (WNW)    
Max Wind Speed 14 mph    
Max Gust Speed 20 mph    
Visibility 9 miles    
Events      
Averages and records for this station are not official NWS values.
T = Trace of Precipitation, MM = Missing Value Source: NWS Daily Summary

Daily Weather History Graph

Daily Weather History Graph

Search for Another Location

Airport:

Trip Planner

Search our weather history database for the weather conditions in past years. The results will help you decide how hot, cold, wet, or windy it might be!

Date:

Astronomy

Feb. 02, 2013 Rise Set
Actual Time 6:54 AM EST 4:37 PM EST
Civil Twilight 6:22 AM EST 5:09 PM EST
Nautical Twilight 5:46 AM EST 5:46 PM EST
Astronomical Twilight 5:10 AM EST 6:21 PM EST
Moon No Moon Rise 9:34 AM EST (2/2)
Length of Visible Light 10h 47m
Length of Day
9h 43m
Waning Gibbous, 60% of the Moon is Illuminated
Feb 2
Waning Gibbous
Feb 3
Last Quarter
Feb 10
New
Feb 17
First Quarter
Feb 25
Full

Hourly Weather History & Observations

Time (EST) Temp. Windchill Dew Point Humidity Pressure Visibility Wind Dir Wind Speed Gust Speed Precip Events Conditions
12:15 AM 6.8 °F -6.9 °F -5.8 °F 56% 29.84 in 10.0 mi West 9.2 mph - N/A   Overcast
12:35 AM 6.8 °F -6.9 °F -5.8 °F 56% 29.85 in 10.0 mi West 9.2 mph - N/A   Overcast
12:55 AM 5.0 °F -6.9 °F -4.0 °F 66% 29.85 in 10.0 mi West 6.9 mph - N/A   Overcast
1:15 AM 5.0 °F -8.1 °F -2.2 °F 72% 29.85 in 5.0 mi NNW 8.1 mph - N/A   Overcast
1:35 AM 3.2 °F -11.3 °F -5.8 °F 66% 29.86 in 7.0 mi NNW 9.2 mph - N/A   Overcast
2:15 AM 3.2 °F -11.3 °F -2.2 °F 78% 29.88 in 10.0 mi North 9.2 mph - N/A   Overcast
2:35 AM 3.2 °F -12.2 °F -4.0 °F 72% 29.88 in 9.0 mi North 10.4 mph - N/A   Overcast
2:55 AM 3.2 °F -10.3 °F -4.0 °F 72% 29.89 in 7.0 mi NNW 8.1 mph - N/A   Overcast
3:15 AM 1.4 °F -13.5 °F -5.8 °F 72% 29.90 in 5.0 mi NNW 9.2 mph - N/A   Overcast
3:35 AM 1.4 °F -11.3 °F -4.0 °F 78% 29.91 in 4.0 mi NNW 6.9 mph - N/A   Overcast
3:55 AM 1.4 °F -13.5 °F -7.6 °F 66% 29.92 in 5.0 mi North 9.2 mph - N/A   Overcast
4:15 AM 1.4 °F -12.5 °F -5.8 °F 72% 29.93 in 3.0 mi North 8.1 mph - N/A   Overcast
4:35 AM -0.4 °F -14.7 °F -5.8 °F 78% 29.93 in 5.0 mi North 8.1 mph - N/A   Overcast
4:55 AM -0.4 °F -16.7 °F -5.8 °F 78% 29.93 in 10.0 mi North 10.4 mph - N/A   Overcast
5:35 AM -0.4 °F -15.7 °F -5.8 °F 78% 29.95 in 10.0 mi North 9.2 mph - N/A   Overcast
5:55 AM -0.4 °F -13.4 °F -7.6 °F 72% 29.96 in 9.0 mi North 6.9 mph - N/A   Overcast
6:15 AM -0.4 °F -14.7 °F -7.6 °F 72% 29.96 in 10.0 mi North 8.1 mph - N/A   Overcast
6:35 AM -0.4 °F -13.4 °F -7.6 °F 72% 29.97 in 6.0 mi NNW 6.9 mph - N/A   Overcast
6:55 AM -2.2 °F -14.2 °F -7.6 °F 78% 29.98 in 5.0 mi North 5.8 mph - N/A   Overcast
7:15 AM -2.2 °F -12.5 °F -9.4 °F 71% 29.99 in 8.0 mi North 4.6 mph - N/A   Overcast
7:35 AM -2.2 °F -14.2 °F -7.6 °F 78% 30.00 in 9.0 mi North 5.8 mph - N/A   Overcast
7:55 AM -2.2 °F -12.5 °F -9.4 °F 71% 30.01 in 10.0 mi North 4.6 mph - N/A   Mostly Cloudy
8:15 AM -2.2 °F -10.4 °F -7.6 °F 78% 30.01 in 10.0 mi North 3.5 mph - N/A   Mostly Cloudy
8:35 AM -2.2 °F - -7.6 °F 78% 30.01 in 10.0 mi Calm Calm - N/A   Clear
8:55 AM -0.4 °F - -7.6 °F 72% 30.02 in 10.0 mi Calm Calm - N/A   Mostly Cloudy
9:15 AM 1.4 °F -6.2 °F -7.6 °F 66% 30.02 in 10.0 mi West 3.5 mph - N/A   Overcast
9:35 AM 1.4 °F -12.5 °F -9.4 °F 61% 30.01 in 10.0 mi West 8.1 mph - N/A   Scattered Clouds
9:55 AM 1.4 °F -11.3 °F -9.4 °F 61% 30.01 in 10.0 mi WSW 6.9 mph - N/A   Partly Cloudy
10:15 AM 3.2 °F -11.3 °F -7.6 °F 61% 30.01 in 10.0 mi WNW 9.2 mph - N/A   Partly Cloudy
10:35 AM 3.2 °F -11.3 °F -11.2 °F 51% 30.01 in 10.0 mi West 9.2 mph - N/A   Clear
10:55 AM 3.2 °F -7.8 °F -9.4 °F 56% 30.01 in 10.0 mi WNW 5.8 mph - N/A   Clear
11:15 AM 5.0 °F -6.9 °F -9.4 °F 52% 30.00 in 10.0 mi WSW 6.9 mph - N/A   Clear
11:35 AM 5.0 °F -4.1 °F -9.4 °F 52% 29.99 in 10.0 mi West 4.6 mph 16.1 mph N/A   Clear
11:55 AM 6.8 °F -6.9 °F -9.4 °F 48% 29.98 in 10.0 mi West 9.2 mph - N/A   Clear
12:15 PM 8.6 °F -3.7 °F -9.4 °F 44% 29.97 in 10.0 mi West 8.1 mph - N/A   Clear
12:35 PM 6.8 °F -2.0 °F -11.2 °F 44% 29.97 in 10.0 mi SW 4.6 mph - N/A   Clear
12:55 PM 8.6 °F -4.7 °F -9.4 °F 44% 29.96 in 10.0 mi WSW 9.2 mph - N/A   Partly Cloudy
1:15 PM 8.6 °F -7.7 °F -7.6 °F 48% 29.95 in 10.0 mi SW 13.8 mph - N/A   Partly Cloudy
1:35 PM 8.6 °F -2.6 °F -9.4 °F 44% 29.95 in 10.0 mi SW 6.9 mph - N/A   Clear
1:55 PM 10.4 °F 4.0 °F -9.4 °F 41% 29.95 in 10.0 mi West 3.5 mph - N/A   Clear
2:15 PM 8.6 °F -2.6 °F -9.4 °F 44% 29.96 in 10.0 mi SW 6.9 mph - N/A   Clear
2:35 PM 10.4 °F -3.3 °F -7.6 °F 44% 29.97 in 10.0 mi SW 10.4 mph - N/A   Scattered Clouds
2:55 PM 10.4 °F -5.4 °F -7.6 °F 44% 29.97 in 10.0 mi WSW 13.8 mph 18.4 mph N/A   Mostly Cloudy
3:15 PM 10.4 °F -4.1 °F -9.4 °F 41% 29.97 in 10.0 mi WSW 11.5 mph 19.6 mph N/A   Partly Cloudy
3:35 PM 10.4 °F -5.4 °F -9.4 °F 41% 29.97 in 10.0 mi WSW 13.8 mph 19.6 mph N/A   Clear
4:15 PM 8.6 °F -4.7 °F -9.4 °F 44% 29.98 in 10.0 mi WSW 9.2 mph - N/A   Partly Cloudy
4:35 PM 8.6 °F -2.6 °F -9.4 °F 44% 29.98 in 10.0 mi WSW 6.9 mph - N/A   Clear
4:55 PM 8.6 °F 2.0 °F -7.6 °F 48% 29.99 in 10.0 mi WSW 3.5 mph - N/A   Clear
5:15 PM 8.6 °F - -7.6 °F 48% 29.99 in 10.0 mi Calm Calm - N/A   Clear
5:35 PM 6.8 °F - -5.8 °F 56% 29.99 in 10.0 mi Calm Calm - N/A   Clear
5:55 PM 6.8 °F - -5.8 °F 56% 29.99 in 10.0 mi Calm Calm - N/A   Clear
6:15 PM 3.2 °F - -5.8 °F 66% 29.99 in 10.0 mi Calm Calm - N/A   Clear
6:55 PM 3.2 °F - 1.4 °F 92% 30.00 in 10.0 mi Calm Calm - N/A   Clear
7:15 PM 1.4 °F - -5.8 °F 72% 30.00 in 10.0 mi Calm Calm - N/A   Scattered Clouds
7:35 PM 1.4 °F - -4.0 °F 78% 30.01 in 10.0 mi Calm Calm - N/A   Partly Cloudy
7:55 PM 1.4 °F - -2.2 °F 85% 30.01 in 10.0 mi Calm Calm - N/A   Clear
8:15 PM 1.4 °F - -2.2 °F 85% 30.00 in 10.0 mi Calm Calm - N/A   Clear
8:35 PM 1.4 °F - -2.2 °F 85% 30.01 in 10.0 mi Calm Calm - N/A   Partly Cloudy
8:55 PM 1.4 °F - -0.4 °F 92% 30.00 in 10.0 mi Calm Calm - N/A   Mostly Cloudy
9:15 PM 1.4 °F - -2.2 °F 85% 30.00 in 10.0 mi Calm Calm - N/A   Overcast
9:35 PM 3.2 °F - -0.4 °F 85% 30.00 in 10.0 mi Calm Calm - N/A   Overcast
9:55 PM 3.2 °F - 1.4 °F 92% 30.01 in 10.0 mi Calm Calm - N/A   Overcast
10:15 PM 1.4 °F - -2.2 °F 85% 30.01 in 10.0 mi Calm Calm - N/A   Scattered Clouds
10:35 PM 1.4 °F - -2.2 °F 85% 30.01 in 10.0 mi Calm Calm - N/A   Clear
10:55 PM 1.4 °F - -4.0 °F 78% 30.00 in 10.0 mi Calm Calm - N/A   Mostly Cloudy
11:15 PM 3.2 °F - -4.0 °F 72% 30.00 in 10.0 mi Calm Calm - N/A   Overcast
11:55 PM 3.2 °F - -0.4 °F 85% 30.00 in 9.0 mi Calm Calm - N/A   Overcast